Home > Weather > Easter Island > Past weeks

Flag for Chile Past Weather in Easter Island, Chile — Yesterday and Last 2 Weeks

Now
63 °F

Sprinkles. Partly sunny.


Feels Like: 63 °F
Forecast: 59 / 65 °F
Wind: 5 mph from East

Location: Isla De Pascua

Current Time: Jul 27, 2016 at 1:19:24 PM

Latest Report: Jul 27, 2016 at 1:00 PM


Visibility: 4 mi

Pressure: 30.21 "Hg

Humidity: 83%

Dew Point: 57 °F

Location of Easter IslandLocation

Past Weather in Easter Island — Graph

°F

Easter Island Temperature Yesterday

Maximum temperature yesterday: 68 °F (at 12:00 PM)
Minimum temperature yesterday: 57 °F (at 5:00 AM)
Average temperature yesterday: 64 °F

High & Low Weather Summary for the Past Weeks

 TemperatureHumidityPressure
High72 °F (Jul 23, 2:00 PM)100% (Jul 25, 9:00 AM)30.24 "Hg (Jul 25, 9:00 AM)
Low48 °F (Jul 17, 1:00 AM)46% (Jul 16, 2:00 PM)29.83 "Hg (Jul 20, 5:00 AM)
Average64 °F76%30.08 "Hg
* Reported Jul 12 12:00 PM — Jul 27 12:00 PM, Easter Island, Weather by CustomWeather, © 2016

Note: Actual official high and low records may vary slightly from our data, if they occured in-between our weather recording intervals... More about our weather records

Advertising

Easter Island Weather History for the Previous 24 Hours

Scroll right to see more
 ConditionsComfort  
Time TempWeatherWind HumidityBarometerVisibility
12:00 PM
Wed, Jul 27
63 °FSprinkles. Partly sunny.7 mph88%30.21 "Hg4 mi
11:00 AM63 °FBroken clouds.8 mph88%30.21 "HgN/A
10:00 AM61 °FBroken clouds.3 mph94%30.18 "HgN/A
9:00 AM61 °FSprinkles. Broken clouds.3 mph94%30.18 "Hg5 mi
8:00 AM59 °FBroken clouds.7 mph94%30.15 "HgN/A
7:00 AM61 °FPassing clouds.5 mph88%30.15 "HgN/A
6:00 AM59 °FPassing clouds.5 mph94%30.15 "HgN/A
5:00 AM55 °FPassing clouds.6 mph94%30.15 "HgN/A
4:00 AM59 °FPassing clouds.3 mph88%30.15 "HgN/A
3:00 AM61 °FPartly cloudy.2 mph88%30.15 "HgN/A
2:00 AM61 °FPartly cloudy.5 mph88%30.18 "HgN/A
1:00 AM59 °FPassing clouds.5 mph82%30.18 "HgN/A
12:00 AM59 °FPassing clouds.3 mph82%30.18 "HgN/A
11:00 PM
Tue, Jul 26
57 °FPassing clouds.3 mph82%30.18 "HgN/A
10:00 PM63 °FPassing clouds.5 mph68%30.18 "HgN/A
9:00 PM63 °FPartly cloudy.5 mph68%30.18 "HgN/A
8:00 PM63 °FPartly cloudy.3 mph68%30.18 "HgN/A
7:00 PM64 °FPartly cloudy.6 mph64%30.15 "HgN/A
6:00 PM66 °FPartly sunny.7 mph60%30.15 "HgN/A
5:00 PM66 °FBroken clouds.8 mph64%30.15 "HgN/A
4:00 PM68 °FBroken clouds.8 mph64%30.12 "HgN/A
3:00 PM68 °FBroken clouds.8 mph60%30.15 "HgN/A
2:00 PM68 °FPartly sunny.8 mph60%30.01 "HgN/A
1:00 PM68 °FBroken clouds.7 mph60%30.15 "HgN/A
Weather by CustomWeather, © 2016

See weather overviewHow to use our weather pages